User: anonymous   Login
Location: NJAA Observatory
(40.6819°N, 74.8979°W)
Time: 05:25:00
(UTC-04:00)
Language:

Cosmos 2237 Rocket - Orbit

View from above orbital plane
View from above orbital plane
View from above satellite
View from above satellite

Ground track
Ground track

The orbit data is extracted from the following two-line orbital elements,

1 22566U 93016B   15089.87643191 -.00000118  00000-0 -36382-4 0  9990
2 22566 071.0096 325.6407 0012739 282.3886 077.5811 14.14896336136792
Epoch (UTC): 30 March 2015 21:02:03
Eccentricity: 0.0012739
inclination: 71.0096°
perigee height: 833 km
apogee height: 852 km
right ascension of ascending node: 325.6407°
argument of perigee: 282.3886°
revolutions per day: 14.14896336
mean anomaly at epoch: 77.5811°
orbit number at epoch: 13679

The dashed part of the orbit path shows where the satellite is in the earth's shadow,  

DLR